Vertical_Velocity
-0 -6 -2 -4 -3 -2 -0 1 -1 -0 -0 -4 -2 -0 -1 -0 5 4 1 0 -0 -4 2 3 2 3 5 6 2 -4 -3 -2 -2 -4 -3 -2 -4 -2 -3 -2 2 0 1 0
-9 -2 -4 -0 1 1 1 -0 0 -0 1 -3 0 -1 -1 0 -7 -6 -5 -0 -0 5 3 -1 1 -0 -2 -3 -1 1 -2 0 -3 2 1 1 -1 -3 -1 -0 -1 0 0 2
-3 -9 0 0 1 -2 -0 -2 0 -3 1 -1 -2 -3 4 2 4 3 3 2 3 -3 0 -0 -1 -1 3 -2 -5 -4 -4 0 -0 2 3 1 6 5 -1 -3 -6 -5 -0 -0
-3 -4 0 -1 -0 -3 -1 -1 -0 -1 -3 -4 -5 -8 -1 1 2 3 1 -2 -3 -1 11 -0 -1 -3 -3 -3 1 4 -1 -1 1 3 3 2 -2 -7 -1 0 1 -3 -1 -1
-15 -1 -0 -2 1 -2 -6 -1 0 0 -1 -3 -2 -5 -13 -1 4 0 2 2 5 2 2 7 -7 -7 0 7 -3 -4 3 3 -0 -1 -0 1 -1 1 8 1 1 -2 -5 -2
-4 2 0 -3 1 0 0 -3 -3 -2 -2 -5 -3 -5 -5 -0 -6 1 4 8 1 -6 -6 -21 -3 -0 -6 -1 -0 4 6 4 5 2 1 -1 -1 -1 -1 -1 2 1 -2 -4
-5 -2 -3 -0 -4 -3 -4 -6 -5 -6 -7 -7 -1 -5 -2 -2 0 -6 -1 4 2 -5 -8 23 15 8 1 -2 5 3 3 3 10 4 7 8 2 4 -1 -3 4 2 2 -2
-3 -10 -1 -1 -3 -5 1 -7 -8 -4 -2 -3 -3 -1 -3 3 5 3 1 2 3 -0 9 5 1 -0 4 -1 9 12 6 6 3 1 0 2 4 1 1 5 -3 -2 -1 -1
-2 -3 -3 0 0 -8 -2 -3 -5 -5 -1 -7 0 -2 -4 -2 -0 3 1 2 -6 1 -2 6 -4 -0 -2 2 -2 -5 -6 -5 -3 -5 -3 1 0 -1 -3 3 -1 -3 -1 -2
-2 -5 -1 -4 -5 -2 -6 -5 -9 -5 -3 0 -2 0 -0 -2 -0 2 3 3 3 0 -5 0 -1 1 5 1 1 -1 -3 -4 -1 -4 -1 1 2 2 6 2 -5 -4 1 -3
-2 -9 -10 -7 -3 1 -7 -3 -5 -9 -4 -5 -2 -3 3 2 2 2 4 4 4 4 1 1 8 -3 -2 6 2 5 2 3 5 4 2 2 1 -4 4 1 -1 -2 6 3
0 -4 -1 -1 -1 1 -1 -0 -2 -7 -1 -1 -5 -6 1 1 2 -1 3 4 6 6 6 4 1 7 6 1 -3 -3 -5 -9 -7 -4 -2 -1 -1 -0 -2 -1 -8 8 3 1
-4 -3 -4 -13 -16 -8 -2 -0 -0 -1 -3 0 -6 -3 1 -1 1 4 -1 0 1 0 -0 -2 -2 -2 -2 -0 1 3 6 6 5 1 -6 -4 1 1 -3 1 2 3 4 0
-6 -1 -7 -10 -9 -2 -2 -1 0 -3 -3 -2 -2 2 2 1 0 3 2 2 2 2 1 1 -0 0 1 -1 -6 -8 -9 -6 -3 -0 1 3 -2 -6 0 -1 -2 -0 4 0
-8 -3 -1 0 0 -0 -0 1 -0 -0 -1 -7 -4 -2 1 1 1 3 5 1 -1 -1 -2 -2 -2 -2 -0 1 2 5 7 5 5 -0 -1 -2 -3 2 -3 -4 1 0 -0 3
-1 -2 -1 -1 -1 -0 -0 -0 -0 -0 1 -1 -1 2 -1 2 1 -2 -1 -1 -0 0 -1 -4 -4 -3 -1 -1 -3 -3 -6 -8 0 -4 -9 -4 -3 -1 2 -4 -5 -2 -1 1
-3 -2 -2 -2 0 -1 -6 1 0 0 -0 -7 -3 -3 0 0 1 0 0 -0 -1 -1 -2 -3 -4 -3 -3 -4 2 -6 -5 0 2 5 5 2 -2 -7 -6 1 -3 -5 -1 -1
-2 -2 -1 -1 -4 -4 -3 1 -2 -4 2 1 -0 1 -0 -1 -1 -2 -3 -4 -4 -3 -3 -3 -6 -9 -9 -6 -5 -8 -6 -2 -3 -2 -2 -0 0 -1 -1 -3 1 -2 -3 -0
-2 -2 -2 -5 -1 2 4 -1 -2 -6 -2 -0 -1 1 -0 -0 7 1 3 -0 3 3 3 3 4 3 -0 -5 -3 -2 -4 -2 -1 -1 1 2 1 -0 -1 -4 -2 -1 -4 -4
-2 -3 -9 -0 -2 -3 -8 -1 1 -3 -7 -2 -1 -1 -2 0 -1 -4 0 1 -1 -1 -1 -2 -2 -3 3 2 -6 -9 -8 -8 -7 -2 -3 1 4 -1 -3 -3 -3 -2 -2 -6
-1 -2 -3 0 -1 -5 -3 0 3 -9 -22 -3 -2 -2 -2 -2 -4 -5 -4 3 -1 -3 -5 -4 -4 -7 -4 -2 0 2 -0 -6 -4 -7 -7 -4 -1 1 2 -6 -4 -3 -1 -2
-5 -5 -1 -1 -1 -7 -0 -1 -8 -11 2 -5 -2 -1 -1 -1 -4 -4 -4 -3 -5 -4 -6 -3 -4 -3 -6 1 2 -6 1 4 3 -2 -7 -9 -8 -4 -2 -1 -4 -3 -1 0
-6 -9 -9 -11 -12 -1 0 -0 -0 -1 -5 -2 -1 -2 -2 -1 -3 -1 -3 -3 -1 1 1 -0 -0 -8 -2 -6 -7 2 1 3 1 2 -3 -7 -6 0 3 -0 -3 -7 2 1
-2 -0 -3 -5 -2 -1 -1 -2 0 -0 1 -1 -1 -2 -3 -4 -2 -3 -4 -5 -5 -1 -4 -0 2 -8 -9 5 1 7 3 2 2 2 -1 -2 -4 -0 3 -1 -2 -1 -1 -1
-4 -2 -1 -2 -0 0 -3 -1 -2 -1 -2 -2 -2 -2 -2 -1 -2 1 -1 -1 1 -1 1 -2 -6 -0 -9 -4 0 1 -2 -1 6 -0 -1 0 -2 -2 -1 -2 -1 1 -1 -0
-0 -5 -5 -8 -5 -5 -6 -4 1 -3 -4 -0 0 -1 -0 -3 -1 -1 -1 -4 -2 -5 -1 1 2 3 -6 -1 -4 -0 5 2 -0 9 -3 1 3 2 -1 -2 3 4 2 -3
Height
1500 1509 1516 1507 1502 1497 1503 1510 1511 1506 1503 1510 1513 1516 1516 1521 1526 1528 1530 1533 1536 1540 1544 1547 1550 1554 1557 1560 1563 1566 1569 1572 1574 1575 1577 1580 1582 1585 1587 1588 1590 1590 1591 1590
1506 1511 1495 1495 1498 1499 1499 1506 1511 1502 1501 1508 1515 1516 1515 1517 1517 1522 1527 1532 1535 1539 1542 1546 1549 1552 1554 1558 1562 1565 1567 1570 1572 1575 1576 1578 1580 1582 1585 1586 1587 1588 1589 1590
1510 1498 1491 1493 1498 1499 1504 1506 1506 1508 1506 1508 1513 1523 1515 1512 1518 1526 1528 1531 1534 1536 1540 1544 1547 1550 1554 1557 1560 1563 1566 1569 1571 1573 1575 1576 1579 1579 1580 1582 1584 1586 1587 1588
1504 1494 1492 1495 1497 1500 1510 1498 1500 1507 1516 1533 1512 1547 1517 1509 1514 1520 1525 1529 1531 1535 1540 1542 1544 1546 1550 1554 1559 1562 1564 1566 1569 1572 1573 1573 1574 1575 1577 1579 1581 1583 1584 1585
1506 1496 1496 1499 1497 1496 1504 1498 1503 1504 1520 1522 1522 1537 1521 1511 1517 1514 1518 1524 1529 1533 1537 1541 1543 1546 1551 1555 1556 1559 1563 1564 1566 1569 1571 1572 1572 1573 1574 1577 1577 1579 1580 1582
1500 1494 1493 1494 1494 1495 1497 1503 1516 1526 1533 1551 1530 1534 1532 1522 1510 1512 1516 1520 1525 1532 1539 1543 1543 1546 1549 1554 1557 1559 1562 1563 1564 1566 1568 1569 1569 1571 1572 1573 1573 1574 1575 1576
1505 1502 1496 1494 1501 1499 1505 1524 1552 1549 1555 1554 1534 1539 1534 1519 1507 1507 1514 1522 1527 1533 1535 1540 1540 1543 1546 1551 1556 1558 1560 1562 1564 1565 1567 1566 1566 1567 1567 1569 1569 1570 1570 1570
1527 1528 1500 1495 1500 1507 1510 1521 1552 1548 1561 1550 1535 1559 1539 1524 1519 1520 1524 1530 1531 1533 1539 1541 1542 1546 1546 1550 1554 1556 1559 1562 1563 1564 1564 1565 1565 1564 1563 1562 1564 1564 1565 1565
1524 1518 1499 1496 1497 1501 1511 1525 1519 1546 1553 1557 1559 1542 1531 1530 1530 1528 1530 1533 1535 1537 1538 1543 1544 1547 1548 1551 1554 1557 1559 1559 1559 1560 1561 1560 1560 1559 1557 1557 1557 1558 1558 1558
1508 1521 1505 1500 1498 1501 1504 1512 1531 1545 1551 1572 1563 1559 1557 1541 1540 1535 1537 1537 1540 1541 1541 1541 1543 1548 1550 1554 1555 1555 1556 1557 1556 1556 1556 1555 1553 1551 1549 1547 1547 1549 1550 1551
1504 1516 1514 1507 1516 1518 1517 1521 1533 1543 1555 1565 1580 1571 1547 1548 1544 1542 1542 1542 1542 1541 1542 1543 1545 1549 1553 1555 1556 1555 1554 1554 1553 1552 1551 1550 1548 1545 1542 1539 1538 1540 1541 1542
1508 1524 1533 1521 1514 1514 1514 1522 1533 1548 1547 1563 1566 1574 1554 1552 1549 1547 1547 1545 1545 1546 1549 1551 1552 1554 1554 1553 1552 1553 1553 1553 1551 1549 1547 1544 1542 1539 1535 1532 1531 1531 1531 1533
1506 1533 1546 1537 1527 1518 1525 1525 1532 1539 1546 1556 1570 1575 1558 1558 1554 1554 1554 1554 1553 1553 1553 1553 1553 1553 1552 1552 1553 1552 1551 1550 1548 1547 1545 1543 1538 1534 1532 1529 1525 1524 1523 1523
1504 1535 1537 1552 1541 1534 1531 1529 1529 1534 1552 1559 1562 1562 1560 1561 1561 1560 1561 1561 1561 1561 1561 1561 1561 1561 1561 1559 1557 1554 1551 1548 1545 1541 1538 1536 1534 1531 1527 1524 1522 1519 1517 1515
1511 1535 1530 1533 1531 1528 1528 1531 1529 1527 1534 1545 1557 1560 1560 1560 1561 1561 1561 1561 1562 1563 1561 1560 1558 1557 1555 1554 1552 1550 1547 1544 1541 1536 1532 1529 1526 1524 1521 1519 1515 1513 1510 1508
1516 1537 1532 1538 1534 1530 1531 1536 1534 1536 1540 1547 1553 1561 1559 1559 1560 1560 1561 1562 1562 1563 1561 1559 1556 1553 1550 1547 1544 1540 1538 1536 1534 1529 1526 1524 1520 1516 1513 1510 1508 1505 1503 1501
1521 1533 1543 1544 1540 1534 1546 1542 1540 1541 1543 1543 1557 1558 1557 1558 1559 1561 1561 1562 1562 1561 1559 1555 1552 1548 1544 1540 1537 1532 1528 1525 1521 1518 1515 1514 1511 1507 1505 1501 1499 1498 1494 1492
1523 1535 1546 1551 1544 1558 1551 1540 1542 1545 1551 1551 1554 1556 1558 1559 1559 1559 1558 1557 1556 1554 1551 1548 1544 1540 1537 1534 1529 1525 1521 1517 1513 1509 1506 1503 1500 1497 1495 1492 1488 1487 1486 1482
1515 1533 1551 1555 1561 1553 1551 1547 1544 1548 1560 1556 1556 1558 1558 1557 1558 1557 1555 1553 1550 1546 1542 1538 1535 1531 1527 1524 1520 1515 1512 1508 1504 1500 1496 1493 1490 1486 1484 1481 1479 1474 1474 1472
1524 1525 1539 1556 1554 1561 1547 1539 1539 1541 1564 1552 1554 1556 1556 1555 1557 1553 1551 1548 1545 1541 1537 1533 1529 1525 1520 1515 1511 1507 1503 1500 1495 1490 1485 1482 1477 1474 1471 1470 1467 1464 1461 1459
1536 1536 1542 1552 1553 1550 1538 1536 1538 1555 1558 1545 1549 1551 1551 1552 1551 1549 1547 1546 1542 1539 1535 1531 1527 1522 1517 1511 1505 1499 1492 1488 1485 1481 1476 1472 1467 1461 1459 1457 1456 1453 1449 1447
1533 1543 1548 1554 1556 1554 1534 1536 1543 1541 1540 1543 1545 1546 1546 1546 1546 1545 1543 1541 1538 1535 1532 1529 1525 1520 1514 1508 1500 1492 1486 1480 1474 1469 1464 1459 1455 1450 1445 1444 1442 1441 1438 1435
1531 1530 1538 1541 1543 1532 1532 1533 1533 1534 1536 1539 1542 1542 1543 1543 1543 1541 1540 1538 1535 1532 1530 1528 1524 1518 1512 1504 1495 1486 1479 1473 1466 1459 1452 1446 1440 1434 1431 1429 1427 1426 1424 1423
1524 1524 1533 1535 1534 1533 1533 1532 1533 1534 1536 1538 1540 1540 1540 1540 1539 1539 1537 1536 1533 1531 1528 1526 1521 1516 1508 1499 1492 1484 1474 1467 1458 1449 1440 1432 1424 1419 1415 1415 1413 1411 1411 1412
1525 1524 1532 1534 1532 1532 1531 1530 1531 1532 1534 1535 1537 1538 1538 1538 1537 1536 1534 1533 1531 1528 1526 1523 1519 1510 1504 1495 1488 1479 1471 1462 1453 1440 1430 1421 1413 1405 1401 1400 1400 1398 1399 1403
1521 1524 1530 1532 1522 1523 1524 1524 1527 1529 1530 1532 1532 1534 1534 1534 1534 1534 1532 1530 1528 1525 1522 1519 1512 1508 1502 1493 1486 1476 1467 1459 1448 1433 1422 1411 1402 1394 1391 1391 1391 1391 1392 1395